Dewpoint
24 24 19 21 23 21 14 14 14 13 20 20 21 21 19 20 22 22 21 20 21 23 28 29 30 34 34 35 39 41 41 43 43 44 43 42 41 42 42 43 43 42 42 41
19 22 24 22 21 19 18 18 15 16 21 16 16 16 16 18 19 21 22 21 21 21 22 26 29 33 33 33 36 39 40 41 43 44 43 42 41 41 41 42 42 42 41 41
17 18 25 21 20 20 19 17 16 14 18 18 17 18 16 18 17 20 21 21 20 20 20 24 28 31 32 31 33 37 39 40 42 42 42 40 39 39 39 39 40 40 41 41
17 19 21 21 18 19 17 20 20 19 16 5 17 11 15 14 17 17 18 19 19 21 20 22 27 30 32 31 32 35 37 38 39 40 40 39 39 39 39 39 40 41 41 40
16 21 21 20 19 20 18 24 20 21 17 23 19 14 12 15 13 15 17 19 20 21 21 21 26 29 31 32 33 34 36 38 39 39 39 39 38 38 38 40 39 40 41 42
18 21 21 19 22 22 24 19 24 26 24 19 18 16 14 9 12 13 16 19 20 20 21 21 25 29 31 33 34 35 36 37 38 39 39 38 38 37 39 39 40 42 44 45
15 18 20 22 20 22 19 14 9 19 22 14 19 17 16 15 16 16 16 17 19 19 20 23 27 29 32 33 34 36 36 36 38 38 38 38 38 37 38 38 40 41 43 45
13 12 19 20 17 15 17 13 10 11 22 23 21 17 19 20 20 20 19 18 19 19 21 24 28 30 31 33 34 35 37 36 39 38 38 39 39 39 39 40 42 43 45 46
15 15 19 19 19 20 18 17 19 18 19 19 19 18 19 20 19 17 18 18 19 20 21 24 28 30 32 33 35 36 37 37 39 39 39 40 40 40 41 42 44 45 46 46
16 12 19 19 18 19 20 20 16 18 11 10 17 21 17 18 15 14 15 18 20 21 22 24 27 31 32 33 35 37 38 38 38 40 40 40 40 41 42 43 44 45 45 45
17 16 16 17 16 17 17 18 20 18 21 17 20 20 26 21 23 17 14 18 20 22 23 25 29 31 33 36 38 39 39 39 40 40 41 41 42 43 43 44 44 44 44 44
19 16 15 16 18 18 18 18 20 19 9 23 24 22 24 23 23 24 18 17 21 23 24 27 30 33 34 37 39 39 39 40 40 40 41 41 42 43 43 43 44 44 43 42
20 17 14 14 17 19 17 17 20 20 23 21 20 14 22 26 24 22 20 17 21 25 25 27 30 32 34 35 37 38 39 40 40 40 41 41 41 42 42 42 42 41 41 41
30 19 16 15 13 20 16 18 18 17 16 14 16 13 14 18 23 25 22 19 20 25 27 27 29 30 33 34 35 37 38 39 40 39 39 40 40 40 40 40 40 41 41 41
23 19 20 19 19 21 19 19 19 17 15 12 11 12 12 13 13 17 21 21 21 21 28 30 28 29 30 33 34 35 37 38 39 39 39 39 40 41 41 41 41 42 42 40
25 20 22 19 20 20 19 19 19 19 18 16 15 15 16 17 17 19 19 18 18 22 25 30 31 30 29 29 32 33 35 37 38 38 38 38 40 40 41 42 42 43 41 41
23 23 19 17 18 18 16 17 17 17 19 17 16 17 17 18 18 17 17 17 17 19 23 27 32 31 31 30 30 32 33 36 37 36 36 37 39 40 41 42 43 42 41 42
24 23 24 20 18 15 18 19 19 17 17 19 18 18 18 18 20 19 19 18 17 18 20 24 28 32 32 33 33 32 35 35 36 36 36 36 38 39 41 43 42 41 42 41
27 25 25 22 20 18 20 21 20 19 20 22 20 20 21 21 22 21 22 22 20 21 23 24 27 31 33 34 33 33 35 35 36 36 36 36 37 39 42 42 42 41 42 42
30 28 27 25 22 19 21 23 24 22 19 21 23 22 22 22 20 21 22 23 24 25 26 27 28 28 32 34 34 32 33 34 34 35 36 37 38 39 41 41 42 42 42 43
30 27 26 26 25 22 25 25 23 17 19 26 24 24 24 23 23 23 26 25 25 25 27 31 31 30 30 32 36 33 32 33 34 35 37 38 38 39 40 41 42 43 43 44
29 27 27 27 25 23 28 27 23 23 24 26 28 30 29 27 29 29 30 31 30 30 32 32 33 33 33 34 36 36 34 34 35 37 37 38 38 38 40 41 43 43 44 43
29 28 26 26 25 26 26 24 26 26 25 25 25 27 27 27 30 29 31 31 32 32 33 33 34 34 35 36 37 37 37 37 38 39 38 39 39 39 40 41 43 43 43 42
30 33 33 33 32 32 33 33 28 27 26 25 25 25 29 29 30 31 32 33 33 34 33 33 33 34 34 35 37 38 38 38 40 39 39 39 39 41 42 42 43 43 43 42
29 30 30 32 30 33 35 32 30 32 40 37 33 31 31 32 33 34 33 33 33 33 34 34 34 35 35 36 37 38 39 40 40 40 41 41 41 41 42 42 43 42 43 43
29 27 26 25 27 31 29 27 27 32 36 36 37 30 31 31 32 33 34 34 34 33 34 34 34 35 36 36 38 38 41 41 40 41 41 42 42 42 42 42 41 44 44 45
Lifted_Index
8 7 6 7 8 8 7 6 6 6 7 6 5 4 5 6 6 6 6 6 7 7 9 10 12 12 12 12 12 13 13 14 14 15 15 15 16 16 17 17 17 17 17 17
7 7 7 8 8 8 7 6 5 6 6 6 5 4 5 6 6 6 6 7 7 7 8 10 11 12 12 12 13 13 14 14 14 15 15 15 16 16 16 16 16 16 17 17
7 7 8 8 7 7 6 5 5 5 6 5 4 3 4 5 5 6 6 6 7 7 8 9 10 11 12 12 13 14 14 14 15 15 15 15 15 15 15 15 15 16 16 16
7 8 8 7 7 7 6 6 6 6 5 4 4 3 3 4 4 5 5 6 6 6 7 8 9 10 11 12 13 14 14 14 15 15 15 14 14 14 14 15 15 15 16 16
8 8 8 7 8 8 7 7 7 6 5 4 3 3 2 3 3 4 4 5 5 6 7 8 9 10 11 13 13 14 14 14 15 15 15 14 14 14 14 14 15 15 15 15
9 9 9 8 9 9 8 7 6 5 4 3 3 3 2 3 3 4 4 5 5 6 7 8 9 10 11 12 13 13 13 14 14 15 14 14 14 14 14 14 14 14 14 14
7 8 9 9 9 9 8 6 4 2 2 2 3 2 2 3 4 5 5 5 6 6 7 8 9 10 11 12 12 13 13 13 13 14 14 14 14 14 14 13 13 12 12 12
5 6 8 9 9 8 7 6 3 2 1 2 3 2 3 4 5 5 6 6 6 6 7 8 9 9 10 11 12 12 12 12 13 13 13 13 14 14 13 13 11 10 10 10
4 5 7 9 9 9 8 6 5 3 2 2 2 3 3 4 5 5 5 6 6 6 7 8 9 9 10 11 11 12 12 12 13 13 13 13 13 13 13 12 10 10 9 10
6 6 7 9 9 8 8 7 6 5 3 1 2 2 3 4 4 5 5 5 6 6 7 8 8 9 10 11 11 12 12 12 13 13 13 13 13 13 12 11 9 9 9 10
8 7 6 7 8 8 8 8 7 5 3 2 1 2 4 4 5 5 6 6 6 7 7 8 8 9 10 10 11 11 12 12 12 13 13 12 12 12 11 10 9 9 9 9
8 7 5 6 7 8 8 8 7 6 4 3 2 3 5 6 6 6 6 7 7 7 8 8 9 9 9 10 10 11 11 11 12 12 12 12 11 11 10 9 9 9 9 9
8 7 5 4 6 8 8 7 7 7 5 4 3 3 5 6 6 6 7 8 8 8 8 9 9 9 9 9 9 10 10 11 11 11 11 11 10 10 9 9 9 9 9 9
9 8 6 5 6 7 7 7 8 7 6 4 3 4 5 6 7 7 7 8 9 9 9 9 9 9 9 9 9 9 10 10 10 10 10 10 9 9 9 9 9 8 9 9
9 9 8 7 7 8 8 8 8 7 6 5 5 5 5 6 7 7 8 8 8 8 8 9 9 9 9 8 9 9 9 10 10 10 9 9 9 9 9 9 8 8 8 8
10 10 9 8 8 8 7 7 8 8 7 7 6 5 6 6 7 7 7 8 8 8 8 9 9 9 9 8 8 8 9 9 9 9 9 9 9 8 8 8 8 8 8 8
10 10 9 9 8 7 6 7 7 7 8 7 6 6 6 7 7 7 7 8 8 9 9 9 9 10 10 9 9 9 9 9 9 9 9 9 8 8 8 8 8 8 8 8
9 10 9 8 7 6 6 8 8 7 7 8 8 7 7 7 8 8 8 9 9 9 10 10 10 10 10 10 10 9 9 9 9 9 8 8 8 8 8 8 8 8 8 8
8 9 8 8 6 6 7 9 9 7 7 7 8 7 7 8 8 8 9 9 10 10 10 10 11 11 11 10 10 10 10 10 9 9 8 8 8 8 8 8 7 8 8 8
8 8 8 7 6 6 8 10 9 7 6 7 7 7 7 8 8 8 9 10 10 11 10 10 10 11 11 10 10 10 10 10 9 9 8 8 8 8 8 8 8 8 8 8
8 7 8 7 6 7 9 10 9 7 6 6 7 7 7 7 8 9 9 10 10 10 10 10 10 10 10 10 10 10 10 9 9 9 9 8 8 8 8 8 8 8 8 8
7 7 7 7 7 7 9 10 9 8 7 7 7 7 7 7 8 9 9 10 10 10 10 10 10 10 10 10 10 9 9 9 9 9 9 9 9 8 8 8 8 8 8 8
5 5 6 7 7 8 9 9 9 8 8 7 7 7 7 7 7 8 8 9 9 10 10 10 10 10 10 9 9 9 9 9 9 9 9 9 9 9 9 8 8 8 7 7
4 5 5 6 8 9 9 8 8 9 9 9 8 7 7 7 7 7 8 8 9 9 10 10 10 10 9 9 9 8 8 8 9 9 9 9 9 9 9 8 8 8 8 8
5 5 5 6 8 9 9 9 8 9 9 10 9 9 8 8 8 8 8 9 9 9 9 9 9 9 9 9 9 8 8 8 8 8 8 8 9 9 9 8 8 8 8 8
6 5 5 6 8 10 11 10 9 8 9 10 10 10 9 8 8 8 9 9 9 9 9 9 9 9 9 9 9 9 8 8 8 7 7 8 8 8 8 8 8 8 8 8